When you browse on this site, cookies collect data to enhance your experience and personalize the content and advertising you see.
Visit our Privacy Policy to learn more. By continuing to use the site, you agree to this use of cookies and data.
  • In Latvia
  • List of Countries
  • For 7 days
  • Water Temperature
  • Weather Map
  • Weather Widgets
  • user-avatar
    Login

    Hourly Weather Popowice

    Today, 31 May, Sunday

    Time Temperature Precipitation Wind Pressure Humidity
    00:00 +10°C° 0 mm 6 mps 755 mmHg 72%
    01:00 +10°C° 0 mm 6 mps 755 mmHg 74%
    02:00 +10°C° 0.4 mm 6 mps 755 mmHg 76%
    03:00 +10°C° 0.4 mm 6 mps 755 mmHg 78%
    04:00 +10°C° 0.4 mm 6 mps 754 mmHg 80%
    05:00 +10°C° 0.1 mm 6 mps 754 mmHg 79%
    06:00 +10°C° 0.1 mm 6 mps 755 mmHg 78%
    07:00 +11°C° 0.1 mm 6 mps 755 mmHg 77%
    08:00 +12°C° 0 mm 7 mps 755 mmHg 73%
    09:00 +15°C° 0 mm 7 mps 755 mmHg 69%
    10:00 +17°C° 0 mm 8 mps 755 mmHg 65%
    11:00 +17°C° 0 mm 8 mps 755 mmHg 63%
    12:00 +18°C° 0 mm 8 mps 755 mmHg 61%
    13:00 +20°C° 0 mm 8 mps 756 mmHg 58%
    14:00 +18°C° 0 mm 7 mps 756 mmHg 60%
    15:00 +18°C° 0 mm 7 mps 756 mmHg 62%
    16:00 +18°C° 0 mm 7 mps 756 mmHg 64%
    17:00 +17°C° 0 mm 6 mps 756 mmHg 68%
    18:00 +16°C° 0 mm 5 mps 757 mmHg 71%
    19:00 +15°C° 0 mm 4 mps 757 mmHg 74%
    20:00 +14°C° 0 mm 4 mps 758 mmHg 77%
    21:00 +13°C° 0 mm 4 mps 758 mmHg 80%
    22:00 +11°C° 0 mm 4 mps 758 mmHg 83%
    23:00 +11°C° 0 mm 4 mps 759 mmHg 84%

    Tomorrow, 1 June, Monday

    Time Temperature Precipitation Wind Pressure Humidity
    00:00 +10°C° 0 mm 4 mps 759 mmHg 84%
    01:00 +8°C° 0 mm 4 mps 759 mmHg 85%
    02:00 +8°C° 0 mm 4 mps 759 mmHg 85%
    03:00 +7°C° 0 mm 4 mps 759 mmHg 85%
    04:00 +8°C° 0 mm 3 mps 759 mmHg 85%
    05:00 +8°C° 0 mm 4 mps 759 mmHg 81%
    06:00 +11°C° 0 mm 4 mps 760 mmHg 77%
    07:00 +12°C° 0 mm 4 mps 760 mmHg 73%
    08:00 +14°C° 0 mm 5 mps 760 mmHg 66%
    09:00 +15°C° 0 mm 5 mps 760 mmHg 60%
    10:00 +16°C° 0 mm 6 mps 760 mmHg 54%
    11:00 +17°C° 0 mm 6 mps 760 mmHg 52%
    12:00 +17°C° 0 mm 6 mps 760 mmHg 50%
    13:00 +17°C° 0 mm 6 mps 760 mmHg 48%
    14:00 +17°C° 0 mm 6 mps 760 mmHg 51%
    15:00 +17°C° 0 mm 6 mps 760 mmHg 54%
    16:00 +17°C° 0 mm 6 mps 759 mmHg 57%
    17:00 +16°C° 0 mm 5 mps 759 mmHg 62%
    18:00 +14°C° 0 mm 4 mps 759 mmHg 68%
    19:00 +13°C° 0 mm 4 mps 759 mmHg 73%
    20:00 +12°C° 0 mm 3 mps 759 mmHg 75%
    21:00 +10°C° 0 mm 3 mps 759 mmHg 78%
    22:00 +9°C° 0 mm 2 mps 759 mmHg 80%
    23:00 +9°C° 0 mm 2 mps 759 mmHg 83%

    Day after tomorrow, 2 June, Tuesday

    Time Temperature Precipitation Wind Pressure Humidity
    00:00 +8°C° 0 mm 2 mps 759 mmHg 86%
    01:00 +8°C° 0 mm 3 mps 758 mmHg 88%
    02:00 +7°C° 0 mm 3 mps 758 mmHg 90%
    03:00 +7°C° 0 mm 3 mps 758 mmHg 92%
    04:00 +7°C° 0 mm 3 mps 758 mmHg 94%
    05:00 +9°C° 0 mm 3 mps 757 mmHg 89%
    06:00 +11°C° 0 mm 3 mps 757 mmHg 83%
    07:00 +13°C° 0 mm 3 mps 757 mmHg 77%
    08:00 +13°C° 0 mm 3 mps 757 mmHg 77%
    09:00 +13°C° 0 mm 3 mps 757 mmHg 78%
    10:00 +13°C° 0 mm 3 mps 756 mmHg 78%
    11:00 +14°C° 0.1 mm 3 mps 756 mmHg 77%
    12:00 +14°C° 0.1 mm 3 mps 755 mmHg 75%
    13:00 +16°C° 0.1 mm 2 mps 755 mmHg 73%
    14:00 +16°C° 0.2 mm 2 mps 754 mmHg 75%
    15:00 +16°C° 0.2 mm 2 mps 754 mmHg 77%
    16:00 +16°C° 0.2 mm 2 mps 753 mmHg 79%
    17:00 +16°C° 0.4 mm 2 mps 753 mmHg 82%
    18:00 +16°C° 0.4 mm 2 mps 752 mmHg 85%
    19:00 +15°C° 0.4 mm 2 mps 752 mmHg 87%
    20:00 +14°C° 0.1 mm 2 mps 752 mmHg 89%
    21:00 +13°C° 0.1 mm 2 mps 751 mmHg 91%
    22:00 +12°C° 0.1 mm 2 mps 751 mmHg 93%
    23:00 +10°C° 0 mm 2 mps 751 mmHg 94%

    3 June, Wednesday

    Time Temperature Precipitation Wind Pressure Humidity
    00:00 +9°C° 0 mm 2 mps 751 mmHg 95%
    01:00 +8°C° 0 mm 2 mps 750 mmHg 96%
    02:00 +8°C° 0 mm 2 mps 750 mmHg 95%
    03:00 +7°C° 0 mm 2 mps 750 mmHg 95%
    04:00 +7°C° 0 mm 2 mps 750 mmHg 95%
    05:00 +9°C° 0 mm 2 mps 750 mmHg 90%
    06:00 +10°C° 0 mm 2 mps 750 mmHg 85%
    07:00 +12°C° 0 mm 3 mps 750 mmHg 79%
    08:00 +14°C° 0 mm 3 mps 750 mmHg 70%
    09:00 +16°C° 0 mm 3 mps 750 mmHg 62%
    10:00 +18°C° 0 mm 3 mps 750 mmHg 53%
    11:00 +18°C° 0 mm 3 mps 750 mmHg 51%
    12:00 +19°C° 0 mm 3 mps 750 mmHg 49%
    13:00 +19°C° 0 mm 3 mps 749 mmHg 47%
    14:00 +19°C° 0 mm 3 mps 749 mmHg 49%
    15:00 +19°C° 0 mm 3 mps 749 mmHg 51%
    16:00 +19°C° 0 mm 3 mps 749 mmHg 52%
    17:00 +18°C° 0 mm 3 mps 749 mmHg 58%
    18:00 +16°C° 0 mm 3 mps 749 mmHg 64%
    19:00 +14°C° 0 mm 3 mps 749 mmHg 69%
    20:00 +12°C° 0 mm 3 mps 749 mmHg 74%
    21:00 +10°C° 0 mm 2 mps 749 mmHg 78%
    22:00 +8°C° 0 mm 2 mps 750 mmHg 83%
    23:00 +8°C° 0 mm 2 mps 749 mmHg 84%

    4 June, Thursday

    Time Temperature Precipitation Wind Pressure Humidity
    00:00 +7°C° 0 mm 2 mps 749 mmHg 85%
    01:00 +8°C° 0 mm 1 mps 749 mmHg 87%
    02:00 +8°C° 0 mm 1 mps 749 mmHg 86%
    03:00 +8°C° 0 mm 1 mps 749 mmHg 85%
    04:00 +8°C° 0 mm 1 mps 750 mmHg 84%
    05:00 +9°C° 0 mm 1 mps 750 mmHg 78%
    06:00 +11°C° 0 mm 1 mps 750 mmHg 72%
    07:00 +13°C° 0 mm 1 mps 750 mmHg 65%
    08:00 +15°C° 0 mm 1 mps 750 mmHg 60%
    09:00 +18°C° 0 mm 1 mps 750 mmHg 55%
    10:00 +19°C° 0 mm 1 mps 750 mmHg 50%
    11:00 +20°C° 0 mm 1 mps 750 mmHg 47%
    12:00 +21°C° 0 mm 1 mps 749 mmHg 44%
    13:00 +22°C° 0 mm 1 mps 749 mmHg 41%
    14:00 +22°C° 0 mm 1 mps 749 mmHg 42%
    15:00 +21°C° 0 mm 1 mps 749 mmHg 42%
    16:00 +21°C° 0 mm 1 mps 748 mmHg 43%
    17:00 +20°C° 0 mm 1 mps 748 mmHg 48%
    18:00 +19°C° 0 mm 1 mps 748 mmHg 54%
    19:00 +16°C° 0 mm 0 mps 748 mmHg 59%
    20:00 +15°C° 0 mm 0 mps 748 mmHg 59%
    21:00 +15°C° 0 mm 1 mps 748 mmHg 58%
    22:00 +13°C° 0 mm 1 mps 748 mmHg 58%
    23:00 +13°C° 0 mm 1 mps 747 mmHg 59%

    5 June, Friday

    Time Temperature Precipitation Wind Pressure Humidity
    00:00 +13°C° 0 mm 1 mps 747 mmHg 60%
    01:00 +13°C° 0 mm 1 mps 747 mmHg 61%
    02:00 +13°C° 0 mm 1 mps 746 mmHg 62%
    03:00 +13°C° 0 mm 1 mps 746 mmHg 64%
    04:00 +13°C° 0 mm 1 mps 746 mmHg 65%
    05:00 +13°C° 0 mm 1 mps 746 mmHg 68%
    06:00 +14°C° 0 mm 1 mps 746 mmHg 70%
    07:00 +13°C° 0 mm 0 mps 746 mmHg 72%
    08:00 +15°C° 0 mm 0 mps 746 mmHg 68%
    09:00 +16°C° 0 mm 0 mps 746 mmHg 63%
    10:00 +18°C° 0 mm 0 mps 746 mmHg 58%
    11:00 +20°C° 0 mm 1 mps 746 mmHg 57%
    12:00 +20°C° 0 mm 2 mps 746 mmHg 56%
    13:00 +21°C° 0 mm 2 mps 746 mmHg 55%
    14:00 +21°C° 0 mm 2 mps 746 mmHg 57%
    15:00 +21°C° 0 mm 2 mps 746 mmHg 58%
    16:00 +21°C° 0 mm 2 mps 746 mmHg 60%
    17:00 +20°C° 0 mm 3 mps 746 mmHg 67%
    18:00 +20°C° 0 mm 3 mps 745 mmHg 74%
    19:00 +19°C° 0 mm 3 mps 745 mmHg 81%
    20:00 +17°C° 0 mm 3 mps 745 mmHg 84%
    21:00 +16°C° 0 mm 3 mps 746 mmHg 87%
    22:00 +14°C° 0 mm 3 mps 746 mmHg 90%
    23:00 +14°C° 0 mm 3 mps 745 mmHg 91%
    Show more